FW0837 Weather Reports


Display with metric or nautical units.
time (UTC)temp
F
wind
direction
speed
MPH
gust
MPH
rain 1hr
in
rain 24hr
in
rain mn
in
humidity
%
barometer
mb
20260505121555 59 209 2.0 11.0 0.00 0.00 0.00 70 1009.6
20260505121055 59 253 4.0 11.0 0.00 0.00 0.00 70 1009.6
20260505120556 59 235 2.0 13.0 0.00 0.00 0.00 70 1009.5
20260505120057 59 224 5.0 13.0 0.00 0.00 0.00 70 1009.4
20260505115558 60 284 2.0 15.0 0.00 0.00 0.00 69 1009.3
20260505115055 60 190 6.0 15.0 0.00 0.00 0.00 69 1009.3
20260505114553 59 231 2.0 8.0 0.00 0.00 0.00 71 1009.2
20260505114055 58 214 3.0 8.0 0.00 0.00 0.00 72 1009.3
20260505113553 57 228 3.0 11.0 0.00 0.00 0.00 72 1009.3
20260505113052 57 145 6.0 11.0 0.00 0.00 0.00 72 1009.3
20260505112548 57 231 4.0 11.0 0.00 0.00 0.00 72 1009.4
20260505112048 57 192 2.0 11.0 0.00 0.00 0.00 72 1009.3
20260505111553 57 245 4.0 11.0 0.00 0.00 0.00 72 1009.3
20260505111045 56 235 3.0 11.0 0.00 0.00 0.00 73 1009.2
20260505110543 56 221 3.0 11.0 0.00 0.00 0.00 73 1009.3
20260505102034 53 255 2.0 9.0 0.00 0.00 0.00 76 1009.3
20260505101533 53 168 1.0 6.0 0.00 0.00 0.00 76 1009.3
20260505101031 53 206 1.0 7.0 0.00 0.00 0.00 76 1009.4
20260505100533 53 191 0.0 8.0 0.00 0.00 0.00 76 1009.4
20260505100040 53 204 3.0 9.0 0.00 0.00 0.00 75 1009.3
20260505095531 53 182 1.0 6.0 0.00 0.00 0.00 75 1009.4
20260505095028 53 196 2.0 5.0 0.00 0.00 0.00 75 1009.3
20260505094528 53 228 1.0 8.0 0.00 0.00 0.00 75 1009.3
20260505094027 53 241 2.0 8.0 0.00 0.00 0.00 75 1009.4
20260505093527 53 233 2.0 7.0 0.00 0.00 0.00 75 1009.3
20260505093027 53 235 2.0 7.0 0.00 0.00 0.00 75 1009.4
20260505092527 52 223 3.0 7.0 0.00 0.00 0.00 76 1009.3
20260505092026 52 133 1.0 4.0 0.00 0.00 0.00 76 1009.4
20260505091526 52 253 0.0 6.0 0.00 0.00 0.00 76 1009.4
20260505091025 52 253 1.0 6.0 0.00 0.00 0.00 76 1009.3
20260505090524 52 222 1.0 5.0 0.00 0.00 0.00 76 1009.3
20260505090044 52 128 0.0 5.0 0.00 0.00 0.00 76 1009.3
20260505085524 52 143 1.0 5.0 0.00 0.00 0.00 75 1009.3
20260505085023 52 175 0.0 3.0 0.00 0.00 0.00 75 1009.3
20260505084530 52 197 0.0 2.0 0.00 0.00 0.00 75 1009.5
20260505084021 52 199 0.0 3.0 0.00 0.00 0.00 75 1009.4
20260505083521 52 220 0.0 3.0 0.00 0.00 0.00 74 1009.4
20260505083033 52 220 0.0 7.0 0.00 0.00 0.00 74 1009.5
20260505082520 52 219 2.0 7.0 0.00 0.00 0.00 74 1009.5
20260505082019 52 138 0.0 4.0 0.00 0.00 0.00 74 1009.5
20260505081525 52 181 0.0 3.0 0.00 0.00 0.00 74 1009.5
20260505081019 53 182 0.0 3.0 0.00 0.00 0.00 74 1009.6
20260505080517 53 120 0.0 4.0 0.00 0.00 0.00 74 1009.6
20260505080026 53 177 1.0 4.0 0.00 0.00 0.00 74 1009.7
20260505075517 52 177 1.0 5.0 0.00 0.00 0.00 74 1009.8
20260505075016 52 161 1.0 5.0 0.00 0.00 0.00 73 1009.7
20260505074516 53 224 0.0 4.0 0.00 0.00 0.00 73 1009.7
20260505074016 53 179 0.0 4.0 0.00 0.00 0.00 73 1009.7
20260505073518 53 203 0.0 3.0 0.00 0.00 0.00 73 1009.7
20260505073016 53 204 0.0 3.0 0.00 0.00 0.00 73 1009.7
20260505072514 53 204 0.0 3.0 0.00 0.00 0.00 73 1009.7
20260505072013 53 208 0.0 3.0 0.00 0.00 0.00 72 1009.8
20260505071523 53 209 0.0 5.0 0.00 0.00 0.00 72 1009.8
20260505071013 53 219 1.0 7.0 0.00 0.00 0.00 72 1009.7
20260505070513 53 197 2.0 8.0 0.00 0.00 0.00 72 1009.7
20260505070015 53 215 3.0 8.0 0.00 0.00 0.00 72 1009.7
20260505065511 53 214 1.0 8.0 0.00 0.00 0.00 72 1009.8
20260505065011 53 276 1.0 8.0 0.00 0.00 0.00 72 1009.8
20260505064513 53 220 1.0 6.0 0.00 0.00 0.00 72 1009.8
20260505064010 53 229 3.0 6.0 0.00 0.00 0.00 71 1009.9
20260505063510 53 227 2.0 5.0 0.00 0.00 0.00 71 1009.9
20260505063010 53 200 1.0 6.0 0.00 0.00 0.00 71 1009.9
20260505062510 53 214 1.0 5.0 0.00 0.00 0.00 71 1009.8
20260505062008 53 204 0.0 5.0 0.00 0.00 0.00 71 1009.8
20260505061523 53 241 0.0 5.0 0.00 0.00 0.00 71 1009.8
20260505061007 53 241 0.0 6.0 0.00 0.00 0.00 70 1009.8
20260505060511 53 177 0.0 6.0 0.00 0.00 0.00 70 1009.9
20260505060006 54 219 0.0 5.0 0.00 0.00 0.00 70 1010.0
20260505055510 54 212 1.0 5.0 0.00 0.00 0.00 70 1010.0
20260505055005 54 193 0.0 6.0 0.00 0.00 0.00 69 1010.1
20260505054506 54 201 0.0 5.0 0.00 0.00 0.00 69 1010.0
20260505054004 54 141 0.0 3.0 0.00 0.00 0.00 68 1010.1
20260505053503 54 141 0.0 7.0 0.00 0.00 0.00 68 1010.2
20260505053001 54 181 0.0 2.0 0.00 0.00 0.00 67 1010.1
20260505052059 55 185 0.0 4.0 0.00 0.00 0.00 66 1010.1
20260505051600 55 192 0.0 7.0 0.00 0.00 0.00 66 1010.1
20260505051059 55 243 2.0 7.0 0.00 0.00 0.00 66 1010.2
20260505050557 55 143 0.0 6.0 0.00 0.00 0.00 66 1010.2
20260505041551 56 270 0.0 7.0 0.00 0.00 0.00 62 1010.2
20260505041050 57 161 1.0 9.0 0.00 0.00 0.00 62 1010.2
20260505040551 57 235 2.0 9.0 0.00 0.00 0.00 62 1010.1
20260505040048 57 254 1.0 5.0 0.00 0.00 0.00 61 1010.2
20260505035548 57 230 2.0 5.0 0.00 0.00 0.00 61 1010.2
20260505035048 57 144 1.0 6.0 0.00 0.00 0.00 61 1010.0
20260505034548 57 183 1.0 6.0 0.00 0.00 0.00 60 1010.0
20260505034048 57 278 2.0 7.0 0.00 0.00 0.00 60 1010.0
20260505033548 58 214 0.0 6.0 0.00 0.00 0.00 59 1010.0
20260505033051 58 271 1.0 8.0 0.00 0.00 0.00 59 1009.9
20260505032548 58 272 3.0 9.0 0.00 0.00 0.00 58 1009.9
20260505032047 58 280 2.0 9.0 0.00 0.00 0.00 58 1009.9
20260505031546 58 136 2.0 11.0 0.00 0.00 0.00 58 1009.8
20260505031046 58 223 2.0 11.0 0.00 0.00 0.00 57 1009.8
20260505030549 59 196 2.0 7.0 0.00 0.00 0.00 57 1009.9
20260505030047 59 140 1.0 6.0 0.00 0.00 0.00 57 1009.9
20260505025548 59 220 2.0 7.0 0.00 0.00 0.00 57 1010.0
20260505025048 59 189 2.0 8.0 0.00 0.00 0.00 56 1010.0
20260505024605 59 157 3.0 8.0 0.00 0.00 0.00 55 1010.0
20260505024049 59 179 2.0 8.0 0.00 0.00 0.00 56 1010.0
20260505023545 60 203 3.0 8.0 0.00 0.00 0.00 56 1010.0
20260505023046 60 238 1.0 7.0 0.00 0.00 0.00 55 1010.0
20260505022546 60 210 2.0 10.0 0.00 0.00 0.00 55 1010.0
20260505022045 60 206 3.0 10.0 0.00 0.00 0.00 54 1010.1
20260505021602 60 256 3.0 8.0 0.00 0.00 0.00 54 1010.1
20260505021045 60 232 1.0 8.0 0.00 0.00 0.00 54 1010.0
20260505020545 61 216 1.0 9.0 0.00 0.00 0.00 54 1010.0
20260505020048 61 153 2.0 8.0 0.00 0.00 0.00 53 1010.0
20260505015545 61 182 2.0 8.0 0.00 0.00 0.00 53 1009.9
20260505015045 61 205 2.0 9.0 0.00 0.00 0.00 53 1009.9
20260505014546 61 191 3.0 8.0 0.00 0.00 0.00 52 1009.9
20260505014044 62 145 4.0 10.0 0.00 0.00 0.00 52 1009.9
20260505013544 62 187 3.0 9.0 0.00 0.00 0.00 52 1009.8
20260505013044 62 221 3.0 11.0 0.00 0.00 0.00 51 1009.6
20260505012545 62 166 3.0 17.0 0.00 0.00 0.00 51 1009.4
20260505012046 62 187 5.0 17.0 0.00 0.00 0.00 50 1009.3
20260505011551 63 197 4.0 18.0 0.00 0.00 0.00 50 1009.3
20260505011044 63 142 2.0 18.0 0.00 0.00 0.00 50 1009.2
20260505010543 63 187 5.0 16.0 0.00 0.00 0.00 49 1009.2
20260505010044 63 218 5.0 16.0 0.00 0.00 0.00 49 1009.0
20260505005542 63 231 3.0 16.0 0.00 0.00 0.00 48 1008.9
20260505005042 64 241 7.0 13.0 0.00 0.00 0.00 47 1008.7
20260505004545 64 185 4.0 15.0 0.00 0.00 0.00 47 1008.6
20260505004041 64 198 5.0 15.0 0.00 0.00 0.00 46 1008.6
20260505003541 65 239 5.0 15.0 0.00 0.00 0.00 46 1008.4
20260505003041 65 249 8.0 16.0 0.00 0.00 0.00 45 1008.2
20260505002541 65 155 4.0 15.0 0.00 0.00 0.00 44 1008.0
20260505002041 66 182 4.0 10.0 0.00 0.00 0.00 43 1008.0
20260505001541 66 220 1.0 6.0 0.00 0.00 0.00 41 1007.7
20260505001041 66 231 3.0 9.0 0.00 0.00 0.00 40 1007.5
20260505000540 66 226 4.0 9.0 0.00 0.00 0.00 40 1007.5
20260505000044 66 222 2.0 6.0 0.00 0.00 0.00 41 1007.4
20260504235540 67 237 2.0 9.0 0.00 0.00 0.00 41 1007.3
20260504235040 67 225 3.0 9.0 0.00 0.00 0.00 39 1007.2
20260504234540 67 231 1.0 9.0 0.00 0.00 0.00 39 1007.2
20260504234042 68 201 2.0 9.0 0.00 0.00 0.00 38 1007.1
20260504233541 68 221 2.0 14.0 0.00 0.00 0.00 38 1007.0
20260504233054 68 240 3.0 14.0 0.00 0.00 0.00 38 1007.0
20260504232539 69 245 2.0 11.0 0.00 0.00 0.00 37 1006.9
20260504232038 69 164 5.0 12.0 0.00 0.00 0.00 37 1006.8
20260504231538 69 242 4.0 12.0 0.00 0.00 0.00 37 1006.9
20260504231038 69 224 5.0 13.0 0.00 0.00 0.00 37 1006.8
20260504230538 69 191 3.0 10.0 0.00 0.00 0.00 36 1006.6
20260504230038 70 250 5.0 11.0 0.00 0.00 0.00 35 1006.6
20260504225539 70 254 5.0 14.0 0.00 0.00 0.00 35 1006.6
20260504225037 70 235 6.0 14.0 0.00 0.00 0.00 35 1006.5
20260504224537 71 229 5.0 11.0 0.00 0.00 0.00 34 1006.4
20260504224039 71 241 4.0 12.0 0.00 0.00 0.00 35 1006.4
20260504223538 71 264 5.0 12.0 0.00 0.00 0.00 35 1006.2
20260504223038 71 214 4.0 10.0 0.00 0.00 0.00 35 1006.4
20260504222537 71 236 5.0 12.0 0.00 0.00 0.00 35 1006.3
20260504222036 71 225 3.0 12.0 0.00 0.00 0.00 35 1006.3
20260504221545 71 260 6.0 11.0 0.00 0.00 0.00 34 1006.4
20260504221036 71 200 4.0 15.0 0.00 0.00 0.00 35 1006.3
20260504220536 71 250 6.0 14.0 0.00 0.00 0.00 35 1006.4
20260504220047 72 271 7.0 15.0 0.00 0.00 0.00 33 1006.3
20260504215536 71 239 7.0 18.0 0.00 0.00 0.00 35 1006.4
20260504215035 71 231 4.0 18.0 0.00 0.00 0.00 33 1006.3
20260504214537 72 218 7.0 16.0 0.00 0.00 0.00 33 1006.4
20260504214035 72 260 8.0 16.0 0.00 0.00 0.00 32 1006.3
20260504213535 73 213 5.0 16.0 0.00 0.00 0.00 32 1006.3
20260504213035 72 298 6.0 16.0 0.00 0.00 0.00 33 1006.3
20260504212534 72 242 3.0 17.0 0.00 0.00 0.00 32 1006.4
20260504212037 72 255 10.0 16.0 0.00 0.00 0.00 32 1006.3
20260504211533 72 220 7.0 15.0 0.00 0.00 0.00 33 1006.4
20260504211033 73 243 7.0 14.0 0.00 0.00 0.00 32 1006.4
20260504210534 72 249 3.0 12.0 0.00 0.00 0.00 34 1006.4
20260504210033 71 274 5.0 17.0 0.00 0.00 0.00 34 1006.3
20260504205534 72 244 7.0 20.0 0.00 0.00 0.00 33 1006.3
20260504205033 74 253 7.0 11.0 0.00 0.00 0.00 31 1006.3
20260504204547 74 199 5.0 12.0 0.00 0.00 0.00 33 1006.2
20260504204031 73 272 5.0 19.0 0.00 0.00 0.00 32 1006.2
20260504203533 73 239 8.0 19.0 0.00 0.00 0.00 31 1006.5
20260504203032 72 249 8.0 17.0 0.00 0.00 0.00 32 1006.4
20260504202531 73 278 7.0 19.0 0.00 0.00 0.00 33 1006.4
20260504202030 73 270 11.0 19.0 0.00 0.00 0.00 31 1006.4
20260504201531 74 264 6.0 14.0 0.00 0.00 0.00 33 1006.3
20260504201029 73 226 4.0 15.0 0.00 0.00 0.00 32 1006.4
20260504200534 73 149 5.0 21.0 0.00 0.00 0.00 31 1006.4
20260504200028 72 256 10.0 21.0 0.00 0.00 0.00 31 1006.5
20260504195527 73 220 8.0 16.0 0.00 0.00 0.00 31 1006.4
20260504195027 72 262 9.0 17.0 0.00 0.00 0.00 31 1006.5
20260504194531 72 224 10.0 21.0 0.00 0.00 0.00 31 1006.5
20260504194027 72 183 11.0 21.0 0.00 0.00 0.00 31 1006.6
20260504193526 73 256 7.0 16.0 0.00 0.00 0.00 31 1006.5
20260504193026 73 220 9.0 19.0 0.00 0.00 0.00 31 1006.5
20260504192525 72 225 8.0 21.0 0.00 0.00 0.00 33 1006.6
20260504192024 72 309 10.0 21.0 0.00 0.00 0.00 31 1006.6
20260504191523 72 257 10.0 21.0 0.00 0.00 0.00 30 1006.6
20260504191023 72 216 10.0 21.0 0.00 0.00 0.00 32 1006.6
20260504190523 72 262 9.0 18.0 0.00 0.00 0.00 31 1006.6
20260504190025 72 252 7.0 19.0 0.00 0.00 0.00 33 1006.5
20260504185521 72 268 9.0 21.0 0.00 0.00 0.00 33 1006.8
20260504185020 72 221 6.0 18.0 0.00 0.00 0.00 32 1006.8
20260504184523 71 286 8.0 23.0 0.00 0.00 0.00 31 1007.0
20260504184019 71 270 10.0 23.0 0.00 0.00 0.00 32 1007.2
20260504183518 71 233 9.0 20.0 0.00 0.00 0.00 31 1007.0
20260504183019 71 238 12.0 20.0 0.00 0.00 0.00 32 1007.1
20260504182517 71 253 7.0 13.0 0.00 0.00 0.00 33 1007.1
20260504182016 71 185 4.0 19.0 0.00 0.00 0.00 36 1007.1
20260504181516 71 241 8.0 19.0 0.00 0.00 0.00 31 1007.2
20260504181015 70 196 6.0 22.0 0.00 0.00 0.00 32 1007.2
20260504180515 70 257 7.0 18.0 0.00 0.00 0.00 35 1007.1
20260504180014 70 272 10.0 16.0 0.00 0.00 0.00 34 1007.3
20260504175514 69 293 9.0 16.0 0.00 0.00 0.00 33 1007.2
20260504175013 70 257 9.0 25.0 0.00 0.00 0.00 33 1007.3
20260504174513 69 228 11.0 25.0 0.00 0.00 0.00 34 1007.2
20260504174013 70 289 9.0 23.0 0.00 0.00 0.00 33 1007.2
20260504173514 69 241 9.0 23.0 0.00 0.00 0.00 32 1007.3
20260504173012 69 256 9.0 22.0 0.00 0.00 0.00 33 1007.3
20260504172510 69 216 8.0 22.0 0.00 0.00 0.00 33 1007.5
20260504172010 69 239 11.0 22.0 0.00 0.00 0.00 33 1007.6
20260504171509 69 251 7.0 26.0 0.00 0.00 0.00 35 1007.3
20260504171012 68 260 11.0 21.0 0.00 0.00 0.00 35 1007.4
20260504170508 67 220 11.0 21.0 0.00 0.00 0.00 35 1007.6
20260504160106 66 195 9.0 24.0 0.00 0.00 0.00 36 1008.0
20260504151051 64 204 7.0 19.0 0.00 0.00 0.00 41 1008.3
20260504150550 64 233 8.0 18.0 0.00 0.00 0.00 40 1008.5
20260504141040 62 249 5.0 10.0 0.00 0.00 0.00 44 1009.3
20260504140543 62 295 8.0 14.0 0.00 0.00 0.00 44 1009.4
20260504130524 58 266 6.0 15.0 0.00 0.00 0.00 51 1009.8